GFSNE_500_spd_060.txt.gz
Wind_Speed
74 75 78 81 85 88 91 91 91 92 89 87 84 80 77 75 76 74 69 64 60 56 54 52 49 48 47 47 46 45 46 47 47 48 50 57 62 66
74 77 82 86 87 89 94 93 90 88 84 77 73 71 71 70 66 60 57 53 50 49 48 48 48 47 46 46 45 45 45 44 44 44 45 47 48 53
79 83 84 87 89 92 94 86 81 78 75 71 70 68 64 60 56 53 49 45 45 46 46 45 44 43 42 42 41 41 42 42 42 42 41 42 43 48
81 86 87 88 92 91 83 76 72 72 73 68 63 58 55 54 51 46 43 42 44 44 41 41 40 39 39 39 39 40 40 40 41 41 41 40 41 45
86 85 87 90 85 81 73 70 70 71 68 62 55 53 51 49 44 41 41 42 42 38 36 36 36 36 36 36 36 36 38 39 40 41 42 43 44 46
83 84 85 83 79 71 67 70 70 69 63 56 52 50 47 43 40 39 38 41 40 40 38 35 33 32 33 33 33 33 34 36 38 40 41 43 45 48
82 82 83 79 73 65 66 69 71 65 58 51 49 46 42 38 37 37 39 39 38 39 35 34 32 29 30 28 30 33 37 40 42 44 45 45 45 47
81 79 77 75 69 65 67 69 70 61 53 48 46 43 38 35 35 36 39 37 34 36 33 31 31 28 29 31 33 38 42 42 40 40 42 43 46 48
77 75 72 73 67 65 67 69 66 56 50 45 44 41 35 34 33 33 36 36 37 35 27 29 30 31 30 32 35 38 35 33 34 37 39 41 43 44
74 75 72 68 66 66 68 68 61 52 47 43 42 38 33 32 31 32 32 34 36 36 28 27 28 30 31 33 36 33 32 32 31 33 36 39 42 44
74 73 70 66 68 69 69 66 56 49 45 41 39 36 32 31 30 30 31 33 32 35 29 26 28 27 30 32 32 29 30 28 29 34 36 36 39 42
72 70 70 69 70 70 69 62 50 47 42 40 37 34 31 29 29 29 29 30 30 29 28 25 28 25 27 32 33 29 26 25 28 27 23 22 24 28
70 68 72 73 72 71 65 54 47 43 39 38 34 33 31 29 28 28 29 29 28 29 27 22 26 25 27 28 29 28 23 23 20 12 14 15 15 17
73 73 75 76 73 66 55 48 44 40 37 35 32 32 30 29 27 27 28 28 28 27 30 26 22 24 24 26 25 25 21 18 16 6 10 11 10 10
80 79 76 71 64 54 48 45 42 37 34 33 31 30 29 27 26 26 27 26 27 27 27 26 22 23 24 25 22 22 19 16 14 12 8 8 8 9
80 73 68 60 55 45 45 43 40 35 32 31 29 28 28 27 26 25 26 24 25 29 27 24 21 20 23 24 22 20 16 14 13 11 13 9 8 9
68 63 59 49 52 46 44 42 38 35 32 31 28 27 26 25 26 25 24 23 22 24 27 26 19 18 20 21 20 19 14 10 11 9 6 8 10 9
52 50 47 50 53 46 43 39 35 33 31 30 26 26 25 24 24 24 23 22 22 23 24 24 21 16 19 19 18 17 14 10 12 7 5 5 11 12
46 43 42 45 44 41 39 36 33 32 31 28 25 26 24 24 22 23 23 21 22 22 22 23 21 16 15 17 17 16 14 11 10 11 10 6 8 13
44 40 37 36 37 38 37 33 31 30 30 27 25 25 24 23 22 21 21 21 21 21 20 21 20 17 14 15 15 14 12 11 11 12 12 7 6 11
40 38 35 35 35 34 33 31 29 27 28 26 25 24 23 23 22 22 22 20 20 19 19 19 19 17 14 13 13 15 13 11 10 10 8 4 5 10
39 35 33 31 32 30 30 28 27 26 26 25 24 23 22 22 22 21 21 20 18 18 17 17 16 15 14 13 12 13 13 11 10 10 7 2 5 11
39 35 30 29 29 27 26 25 25 24 24 24 24 23 22 21 20 20 20 20 18 17 16 16 15 14 13 13 12 12 12 10 8 8 7 2 3 10

GFSNE_500_spd_063.txt.gz
Wind_Speed
69 70 71 74 78 79 80 87 86 85 85 86 85 83 81 78 76 73 69 63 58 56 54 52 50 49 48 47 46 45 44 44 45 46 47 49 54 61
72 73 75 77 79 82 84 84 85 86 86 83 78 75 74 74 72 66 57 53 51 49 46 44 44 44 45 44 43 41 41 42 42 43 44 45 47 48
74 77 77 79 82 82 84 84 85 85 83 73 68 70 71 71 65 57 52 51 47 43 41 40 41 43 43 40 38 36 36 37 38 38 39 40 42 44
77 78 78 79 81 82 84 85 83 80 76 67 68 68 70 67 59 52 49 46 42 40 39 39 39 37 36 35 34 34 35 36 37 38 39 40 40 39
79 79 79 81 82 83 83 80 78 76 70 65 67 68 69 61 53 48 45 42 39 39 39 38 35 32 30 31 31 31 30 31 34 35 37 39 40 41
79 79 81 82 82 82 79 76 75 72 66 66 67 69 65 56 49 45 40 38 36 39 40 37 33 31 28 28 28 29 30 31 31 33 34 35 37 40
80 81 82 83 82 80 77 75 72 68 65 67 67 69 60 51 46 42 38 35 36 39 40 36 33 28 26 26 28 28 28 29 31 34 37 40 41 42
80 82 83 83 81 78 76 72 68 65 65 67 68 66 55 48 43 39 36 34 35 37 35 36 33 29 27 27 26 27 31 32 34 38 42 43 44 46
82 84 85 84 81 77 73 67 64 66 68 69 68 61 50 45 40 36 34 33 34 38 32 32 33 30 29 27 27 29 32 35 38 38 37 37 38 39
85 87 87 84 78 74 68 66 68 70 71 71 66 55 47 42 37 33 32 31 32 35 32 28 32 29 30 27 28 29 33 36 36 34 34 35 36 39
87 88 85 79 73 72 71 70 73 73 73 68 59 48 43 39 34 31 30 29 29 31 32 31 30 26 28 27 27 28 32 33 31 30 30 33 38 41
90 86 79 75 74 76 76 76 75 72 67 59 51 43 39 36 32 30 29 28 28 27 30 28 31 24 21 27 28 27 30 30 27 25 27 32 33 31
90 83 78 77 80 80 77 73 68 63 56 49 43 39 37 34 29 29 28 26 26 26 28 27 28 26 21 20 28 28 29 27 23 22 25 24 22 21
86 83 82 79 74 72 68 64 60 53 45 42 38 37 35 32 27 27 26 25 24 23 26 27 27 26 22 21 24 26 28 24 19 18 21 20 18 17
84 82 76 71 66 64 58 55 48 47 36 37 35 35 33 29 26 26 26 24 24 24 23 24 26 27 23 20 22 24 25 24 16 15 18 20 17 15
76 71 67 62 55 48 47 47 41 43 38 37 33 33 31 27 24 24 24 23 24 25 24 22 23 25 24 19 20 22 22 21 16 14 15 16 13 11
72 64 58 50 46 44 45 39 41 44 39 37 30 30 29 25 23 22 22 23 23 24 25 25 23 22 24 20 19 20 21 19 13 12 10 9 9 8
66 60 51 47 43 42 41 41 39 37 37 31 28 27 26 25 22 22 21 22 22 22 22 23 23 23 23 20 17 18 18 17 10 8 9 8 7 8
60 54 49 45 42 39 39 36 33 32 31 29 27 26 24 24 22 22 21 21 21 20 20 20 20 20 21 19 15 15 15 15 13 11 12 11 7 8
53 49 47 44 41 40 35 33 32 31 29 27 25 25 23 22 21 21 20 20 20 19 19 18 18 17 18 18 14 12 13 13 13 12 12 11 6 8
47 45 43 40 39 38 36 33 30 28 26 24 24 24 21 21 20 20 20 20 20 20 19 18 16 15 15 16 14 12 11 11 10 9 8 6 5 10
42 40 39 38 36 36 34 32 28 26 24 24 23 22 20 20 20 20 20 19 19 19 18 17 15 14 14 14 14 12 10 10 10 8 7 4 4 10
41 39 38 37 35 35 32 29 26 24 23 23 22 21 21 21 20 20 19 18 17 18 17 16 15 14 13 13 13 12 10 8 9 9 7 4 4 9

GFSNE_500_spd_069.txt.gz
Wind_Speed
57 63 65 70 70 70 78 78 81 82 82 83 85 87 88 90 90 90 90 89 84 74 67 65 64 62 57 51 48 48 48 49 51 52 54 56 58 62
64 72 73 73 77 80 79 83 85 86 85 85 86 88 89 89 92 91 88 81 71 63 62 63 64 60 52 48 47 46 46 46 47 47 48 50 53 55
69 74 78 72 82 85 84 85 85 86 86 85 87 88 89 91 91 87 76 70 65 63 61 61 62 55 49 47 45 44 44 45 44 41 40 41 43 45
72 79 80 81 84 82 83 84 85 85 87 88 87 88 90 89 85 81 69 64 62 64 64 64 59 50 46 45 42 41 42 40 38 37 35 34 35 36
75 78 78 78 79 81 83 84 85 86 88 90 91 91 90 86 79 74 70 67 64 66 65 60 52 44 44 42 39 38 37 35 35 33 32 31 31 32
70 71 74 76 78 81 82 83 84 87 88 91 92 91 87 79 77 75 72 71 68 63 60 53 46 40 41 38 35 35 36 35 33 31 30 30 30 30
69 69 72 74 76 80 82 82 86 88 90 91 90 85 80 77 76 74 72 68 62 57 52 46 42 38 38 36 33 29 31 33 31 30 30 29 30 31
70 71 74 78 81 84 83 83 84 87 89 88 85 78 76 75 73 69 65 61 55 49 47 40 38 36 35 34 32 30 30 28 30 29 30 29 30 30
71 73 76 81 85 85 86 88 90 92 94 90 84 75 75 71 69 65 60 55 48 43 42 36 36 34 32 31 32 30 30 28 28 30 30 29 30 31
73 76 80 84 84 84 88 90 92 94 88 83 80 72 68 65 63 59 54 47 42 38 38 34 33 32 30 29 31 30 29 28 27 28 28 29 30 31
76 80 85 85 84 87 91 92 92 87 79 78 76 73 67 60 54 47 42 41 37 35 34 33 31 30 30 28 31 29 28 27 27 27 26 27 28 30
80 83 84 85 87 88 91 91 88 81 77 75 76 67 57 53 43 37 38 39 37 32 31 31 29 30 28 27 28 31 29 25 25 25 25 27 28 30
84 85 85 86 87 89 89 87 83 78 74 71 63 54 49 45 38 40 37 34 36 31 30 29 28 28 28 26 27 29 29 25 23 23 24 25 28 30
86 85 87 86 87 87 85 81 76 72 69 60 50 45 43 38 42 51 45 34 33 30 29 28 26 27 27 27 26 28 28 26 21 21 23 25 28 28
86 86 86 86 85 83 79 73 69 66 61 49 42 40 36 33 41 48 40 35 32 28 27 25 25 25 26 26 25 27 27 26 21 20 21 24 26 24
86 86 87 85 83 80 72 67 64 60 51 42 38 35 33 37 39 36 33 33 28 26 25 23 23 23 24 25 24 25 26 24 21 19 21 22 22 22
87 87 85 82 78 71 66 65 60 55 45 39 35 33 33 32 31 34 35 29 25 25 24 22 21 22 22 23 23 23 24 23 19 18 20 20 19 20
86 84 81 78 72 66 62 61 55 50 41 38 34 31 29 32 35 37 31 27 24 24 22 22 21 20 21 21 22 22 22 21 18 17 18 18 18 21
82 80 77 74 68 62 60 59 52 46 40 36 34 31 31 30 32 32 29 26 24 23 22 21 20 19 19 19 19 20 20 19 17 16 17 17 18 20
79 77 77 71 65 59 60 56 48 44 40 37 36 34 30 32 33 32 28 25 24 23 21 21 19 19 19 18 19 18 18 18 16 16 16 17 18 19
78 78 75 69 61 60 60 53 46 42 40 38 37 34 31 29 29 26 24 24 23 22 21 20 18 20 19 18 17 17 16 16 16 15 15 15 17 18
78 77 72 66 62 62 56 49 44 40 38 38 38 38 33 30 26 24 24 24 23 22 21 20 19 19 18 18 17 16 16 15 15 14 14 14 15 14
78 73 68 64 63 59 51 45 41 38 36 35 35 32 28 26 23 24 24 24 23 21 21 19 18 18 17 17 16 15 14 14 13 14 14 13 13 13

GFSNE_500_spd_072.txt.gz
Wind_Speed
54 52 53 54 58 66 68 74 80 82 81 79 80 81 82 85 84 85 85 87 87 89 89 85 77 67 64 61 61 62 60 53 48 45 45 45 46 49
56 50 49 58 67 72 78 78 77 79 78 78 77 79 82 84 85 87 89 90 91 90 82 74 67 63 65 63 63 60 54 48 44 43 44 44 44 45
53 62 67 74 77 79 77 76 76 76 79 75 78 81 83 84 86 88 91 93 91 81 72 69 67 65 63 60 58 53 48 44 42 42 43 41 40 40
61 63 67 71 72 73 73 74 73 75 79 80 80 83 82 85 88 90 92 91 86 75 70 67 61 61 57 52 51 46 42 41 40 41 41 38 37 36
60 63 66 68 70 72 72 73 75 78 81 84 84 83 85 88 90 90 88 86 78 73 65 62 56 54 50 46 44 42 40 39 39 39 38 35 33 32
64 66 68 69 69 70 73 75 76 79 83 85 85 86 89 89 91 88 82 80 71 67 64 59 51 50 45 41 40 37 37 36 38 36 34 32 30 28
65 67 68 69 70 72 73 74 78 82 83 83 84 87 88 88 83 79 77 72 67 67 62 56 48 44 41 38 35 35 33 33 33 33 33 30 28 27
67 68 69 71 73 73 75 78 81 85 86 89 91 91 89 89 84 81 74 71 70 61 58 51 44 41 38 35 33 33 32 31 29 29 30 30 28 28
67 68 70 70 71 74 77 81 83 85 87 88 90 89 88 85 81 74 72 69 62 54 49 43 38 36 35 32 31 32 30 29 29 29 28 27 27 27
68 69 69 70 74 78 81 84 86 87 87 89 90 88 85 79 73 69 66 58 51 44 40 39 37 34 32 30 29 31 29 27 26 28 27 26 24 26
69 69 71 74 78 83 86 86 87 86 86 86 86 84 78 72 68 63 54 47 44 35 35 38 35 32 30 28 29 29 28 26 25 27 27 26 24 24
68 71 75 79 82 85 87 89 88 86 87 86 82 75 71 65 61 51 46 47 43 35 33 39 36 31 28 27 28 28 26 25 26 25 26 25 24 24
72 76 79 82 84 85 88 89 88 88 86 83 76 67 63 60 52 41 40 42 41 37 45 45 38 30 28 24 26 27 26 25 25 26 24 24 24 25
76 79 82 84 86 88 88 87 86 87 84 77 67 62 58 53 43 38 35 36 33 36 40 43 37 28 27 25 24 25 25 24 25 24 23 23 24 25
81 85 86 87 88 87 85 84 84 83 77 68 61 57 53 47 39 37 36 33 35 36 38 35 28 27 24 24 24 23 22 24 25 23 23 22 23 24
86 88 89 87 86 85 83 82 81 76 70 64 58 54 49 41 36 33 31 35 35 35 32 28 24 24 23 24 22 22 22 22 24 23 21 21 22 22
89 89 88 86 85 82 81 79 76 72 65 59 55 53 46 39 33 30 30 31 31 33 29 25 24 22 22 22 21 21 20 21 22 23 21 19 21 21
89 88 86 85 82 81 78 75 72 67 60 54 53 49 43 37 30 28 27 25 31 32 25 24 23 20 20 20 19 19 20 19 21 22 19 17 20 22
87 85 83 81 80 78 77 75 68 61 56 53 50 43 40 35 31 32 32 30 33 32 26 24 22 20 18 18 18 18 17 17 18 20 18 16 17 20
83 82 81 79 78 78 76 72 65 57 53 51 44 40 37 36 36 37 33 32 33 29 24 23 20 19 18 17 18 17 16 16 16 17 17 16 16 17
81 80 79 79 78 77 73 68 62 56 51 44 40 38 36 36 39 35 31 30 27 23 22 22 19 18 17 16 17 17 15 15 15 16 16 15 16 16
81 80 79 78 77 74 69 63 57 51 44 39 37 35 35 36 38 38 34 33 25 23 20 20 18 18 17 17 17 16 15 14 14 15 15 14 14 15
82 81 79 77 73 69 64 57 51 44 40 36 33 32 32 29 31 29 27 24 23 21 20 19 18 18 17 16 16 16 14 14 13 13 14 14 13 13

GFSNE_500_spd_075.txt.gz
Wind_Speed
35 41 41 46 56 46 51 61 68 66 67 70 71 71 71 73 75 77 79 80 82 82 84 85 87 87 87 84 78 74 69 66 64 61 59 55 52 49
42 44 44 45 50 59 64 64 65 67 68 68 68 69 72 73 77 80 82 83 84 86 87 86 87 87 83 73 70 67 65 61 58 54 51 49 47 45
43 44 46 49 52 57 61 64 66 68 68 67 68 71 71 74 78 81 83 86 88 89 88 87 85 81 72 65 66 62 59 55 52 48 46 44 42 42
45 47 50 54 58 61 64 67 68 69 70 69 68 68 73 77 79 82 84 87 89 90 91 88 83 75 65 63 61 58 54 51 47 43 41 40 40 39
49 51 54 58 61 65 67 67 67 69 70 70 69 72 76 80 82 86 87 88 88 88 87 81 74 68 63 60 56 53 49 48 43 39 37 36 36 36
53 56 60 62 64 66 66 67 69 70 70 72 74 76 80 81 87 88 89 89 88 86 81 76 70 66 62 56 51 47 42 40 38 35 35 35 35 33
58 61 62 64 66 66 67 69 70 70 72 75 78 81 83 84 86 86 89 90 87 83 76 73 69 63 55 50 47 42 37 35 34 33 32 34 34 32
62 64 66 67 66 68 69 72 73 75 77 80 83 87 87 90 87 87 88 87 84 75 74 69 62 56 47 43 41 38 35 33 31 30 30 31 31 30
64 66 67 67 67 69 70 71 73 76 80 85 86 89 90 89 88 88 85 81 75 68 69 63 52 45 40 39 37 34 33 31 29 28 28 29 29 28
67 66 66 68 68 69 71 73 75 79 83 87 89 90 89 87 85 85 81 72 67 63 62 54 41 39 33 31 34 32 30 28 27 26 27 28 27 26
67 68 68 69 71 74 75 77 80 82 86 89 90 90 88 87 85 81 70 66 63 56 51 44 41 40 33 33 34 32 28 28 26 26 26 26 28 26
68 68 71 72 74 78 81 82 84 87 90 91 89 87 86 85 81 74 66 61 58 51 39 48 45 42 35 37 33 30 28 26 25 25 25 25 26 25
69 71 73 76 79 82 86 88 91 93 94 92 88 87 85 81 73 64 59 56 51 43 41 44 40 35 34 34 29 28 26 25 24 25 24 25 26 25
72 74 74 79 83 86 90 93 95 95 92 89 87 84 80 73 64 57 52 50 44 40 41 38 35 32 34 31 25 26 25 24 23 24 23 24 25 24
76 78 80 84 87 91 94 95 93 91 89 87 84 79 74 65 57 51 48 44 39 36 35 33 31 32 34 30 24 23 22 23 22 21 22 23 24 23
81 83 85 88 91 93 93 91 90 87 85 82 78 74 67 58 52 48 45 40 35 31 28 32 33 34 31 25 22 21 21 21 22 21 21 23 23 22
83 86 89 91 92 91 88 86 85 82 79 77 75 69 62 54 47 45 41 36 31 26 28 31 31 27 23 22 21 20 20 20 20 20 19 21 23 21
88 91 92 92 91 88 87 85 81 77 76 73 70 65 57 48 44 40 36 30 26 27 26 26 28 24 21 21 20 19 19 18 18 18 18 19 23 19
93 93 92 91 89 88 85 81 77 75 73 69 65 58 51 42 39 35 15 23 35 31 26 28 33 26 20 21 22 19 18 16 17 18 17 17 19 18
93 91 90 89 87 85 82 79 76 73 70 66 60 52 46 38 34 36 34 39 41 38 32 32 32 25 20 21 20 19 17 17 17 16 16 16 16 16
91 91 89 87 84 82 80 77 74 71 67 61 54 46 39 36 33 34 37 40 38 37 31 29 25 20 20 19 18 18 15 16 16 15 15 15 14 13
92 89 86 83 81 79 77 75 72 67 61 55 47 39 36 34 33 38 39 34 38 34 29 26 21 19 19 18 17 17 16 15 15 15 14 13 13 13
86 83 81 80 79 78 76 72 66 59 53 46 39 36 33 32 31 33 36 35 36 37 28 22 19 19 19 17 17 16 15 15 15 14 13 12 11 12

GFSNE_500_spd_078.txt.gz
Wind_Speed
39 41 42 41 42 45 44 45 48 49 53 57 60 62 64 65 66 68 68 68 70 73 76 79 82 85 87 87 89 91 90 92 87 80 72 69 65 62
41 43 42 43 44 45 45 47 50 53 55 58 61 62 64 66 68 68 67 69 72 77 80 83 86 88 88 89 91 90 87 82 75 73 67 62 59 56
42 43 44 44 46 48 49 52 55 58 60 61 62 63 64 66 67 69 72 74 76 81 84 87 87 88 89 90 90 86 80 75 69 70 63 55 53 50
43 43 44 46 48 50 54 57 58 61 63 62 62 62 66 68 68 72 75 78 81 84 88 89 88 90 91 90 84 79 72 70 67 62 56 52 48 44
45 45 48 49 51 55 58 59 62 63 63 63 63 65 66 68 72 74 77 80 84 88 89 90 91 91 91 85 77 73 69 65 59 53 49 46 44 39
47 49 51 53 56 58 61 64 64 64 64 64 66 66 70 73 76 78 81 84 88 92 91 90 92 91 85 79 74 71 65 57 50 47 43 41 39 37
51 53 56 58 61 63 65 66 66 66 66 67 69 70 73 77 80 82 85 89 91 92 89 90 89 84 76 73 71 63 54 47 45 42 40 37 35 35
56 58 61 63 66 68 68 68 68 68 68 71 74 76 78 82 84 86 90 95 96 92 90 89 84 75 70 70 66 53 43 43 42 40 35 33 33 33
60 63 65 67 69 70 70 70 71 73 74 77 76 78 81 85 88 91 95 96 93 89 87 84 73 68 65 64 55 40 38 39 39 36 32 31 32 31
63 66 66 69 72 72 71 71 72 75 76 78 80 82 85 89 93 96 95 92 89 86 81 76 64 61 59 56 42 36 40 39 34 32 30 29 29 30
66 68 71 73 71 71 71 72 74 76 78 80 83 86 90 93 95 94 90 90 87 82 73 66 58 56 54 47 40 41 43 40 33 29 27 28 28 28
70 71 72 71 71 73 73 75 76 78 81 84 87 90 92 92 90 91 91 89 85 76 62 58 53 52 48 40 41 42 42 37 31 28 26 27 26 26
71 72 72 72 73 75 77 80 82 84 86 88 91 94 93 92 90 89 88 83 78 68 56 52 49 47 43 39 39 39 36 34 29 25 25 25 25 25
73 72 73 74 77 79 82 84 86 89 91 93 95 94 92 89 87 84 79 75 70 60 52 48 45 42 39 38 38 35 34 30 26 24 25 24 24 25
75 75 75 78 80 82 84 88 91 94 96 96 94 92 91 88 83 77 71 67 61 53 47 45 41 38 33 31 32 33 30 25 23 23 23 24 24 24
77 79 81 82 84 86 90 94 96 98 98 95 93 91 87 81 76 71 64 59 52 46 44 41 36 32 26 30 32 30 24 22 23 21 21 23 23 23
81 83 85 86 89 93 96 98 99 97 95 93 90 87 81 75 69 65 59 52 44 41 38 33 29 27 28 29 26 24 22 21 22 21 20 22 23 22
84 85 88 91 95 98 99 99 97 95 93 90 86 81 76 71 66 60 54 45 37 30 28 28 29 30 30 25 26 23 21 21 21 20 20 21 23 19
88 91 95 98 100 101 100 98 95 92 88 83 79 76 72 69 62 54 44 38 28 20 25 29 28 27 29 24 29 22 21 19 20 20 19 18 19 19
95 98 100 101 100 99 97 94 89 83 81 78 76 74 70 63 55 47 38 34 26 26 34 37 33 33 34 30 27 24 20 19 20 19 18 17 17 18
99 100 100 99 96 93 89 85 82 80 79 77 74 71 64 56 48 40 35 33 34 40 40 39 37 41 34 30 23 24 20 19 20 19 19 18 15 14
101 99 97 94 90 87 85 83 81 79 76 73 70 63 55 47 39 35 33 33 34 44 45 44 43 40 34 26 23 22 19 19 18 19 18 16 14 13
97 94 91 89 87 86 83 80 78 76 73 69 60 51 44 38 34 32 31 32 34 35 36 37 38 32 26 23 22 20 18 17 17 17 17 15 13 12

GFSNE_500_spd_084.txt.gz
Wind_Speed
42 36 34 34 38 43 45 45 46 47 47 48 48 48 50 51 52 54 57 59 62 63 63 64 64 65 67 69 71 74 76 77 79 82 86 90 91 92
36 40 32 35 42 50 49 47 49 49 49 50 50 50 52 54 55 58 61 61 62 63 63 64 65 67 69 71 73 75 78 81 84 87 89 91 92 91
43 40 41 45 48 48 48 50 50 49 49 50 51 53 55 58 60 62 62 64 63 64 64 65 67 69 71 73 76 78 81 84 86 89 91 89 90 89
43 43 44 50 49 49 49 48 49 50 52 53 54 57 58 61 62 63 65 65 65 65 65 67 68 71 73 75 78 82 84 85 87 88 87 86 85 81
40 44 50 50 49 51 49 49 51 53 54 55 57 60 61 61 64 66 66 65 65 66 68 68 71 74 76 79 82 84 87 87 87 86 85 83 78 72
46 50 52 54 54 52 52 53 54 55 58 60 61 61 63 66 67 67 67 67 66 68 69 72 75 77 80 82 84 86 87 87 87 86 83 77 71 64
51 51 55 57 54 52 53 54 56 59 61 62 63 65 66 68 69 70 70 70 70 71 74 76 78 81 83 86 87 87 87 87 87 82 78 71 64 57
54 56 55 53 54 55 56 58 62 63 65 67 67 70 71 72 74 74 74 74 73 76 80 78 81 83 88 91 90 91 91 90 84 76 70 64 57 52
54 55 54 55 55 58 61 65 66 69 71 71 72 74 75 76 78 78 78 79 79 81 84 82 86 89 93 93 93 93 92 84 76 68 62 56 50 47
56 57 58 61 63 65 67 70 73 73 75 76 78 78 79 80 81 81 82 82 83 85 87 88 92 95 95 94 93 92 84 73 66 62 57 49 45 40
61 63 65 67 68 71 75 77 79 78 79 81 81 81 81 82 83 85 86 87 86 88 91 96 96 98 97 93 87 82 73 66 62 57 49 42 39 36
64 66 69 72 75 77 78 78 79 82 83 83 82 83 84 84 86 87 89 90 91 93 94 97 98 98 94 84 76 72 68 63 56 49 40 37 35 34
68 70 72 75 77 78 80 82 83 83 82 83 84 84 85 85 86 88 90 91 93 95 94 99 95 89 84 77 69 67 62 56 46 40 35 34 34 32
71 73 74 78 81 84 85 84 82 83 84 84 83 84 85 86 89 91 92 93 95 96 95 93 88 81 76 72 67 61 54 45 39 34 34 32 32 30
75 78 82 85 85 85 84 84 85 85 86 87 88 90 92 93 94 94 95 95 96 96 91 85 81 76 73 68 62 54 45 37 33 31 31 30 30 29
83 84 83 83 84 86 88 88 89 90 91 92 94 96 97 97 97 98 98 99 95 86 82 79 76 74 68 61 55 45 35 31 25 25 26 28 26 22
78 81 85 86 87 88 90 92 94 95 97 99 100 101 101 101 100 100 97 93 88 81 73 72 72 67 61 54 45 33 28 22 21 24 27 25 22 21
84 85 85 88 91 94 96 98 101 103 104 105 105 104 103 101 97 93 89 86 81 77 73 68 64 60 52 43 32 24 22 17 24 26 25 21 22 19
86 88 92 95 98 101 104 106 107 108 107 106 104 101 97 93 90 86 83 81 77 74 69 64 57 49 39 28 20 18 18 23 26 21 22 19 21 17
93 97 100 103 105 108 110 110 109 106 103 100 97 94 92 89 86 84 81 78 73 68 61 54 44 36 29 25 19 22 29 27 26 23 24 19 19 17
99 103 106 109 111 112 111 109 105 101 98 96 95 92 90 87 84 80 75 71 66 59 49 39 32 29 26 28 30 31 29 26 25 24 22 19 18 16
107 110 112 113 113 110 107 104 102 100 98 96 93 90 86 82 77 71 66 59 52 42 33 28 27 27 27 31 33 29 27 27 29 25 19 19 17 15
110 111 110 108 107 106 106 104 102 99 96 91 87 81 75 67 61 55 47 40 33 27 22 24 29 33 26 32 30 29 30 31 30 25 21 17 16 15

GFSNE_500_spd_087.txt.gz
Wind_Speed
42 46 41 47 50 44 45 45 43 41 48 50 53 56 55 53 51 52 52 53 54 57 58 61 61 63 64 64 66 67 66 67 68 70 72 73 76 79
37 34 33 46 50 47 36 46 46 51 50 53 54 52 53 53 54 55 55 56 58 60 62 63 64 66 66 67 67 67 68 68 70 73 75 77 80 83
31 27 48 56 44 45 43 46 48 51 51 54 55 56 56 56 56 56 58 60 63 64 64 65 66 66 68 68 68 68 69 72 74 76 78 80 84 85
31 32 35 38 43 48 50 51 54 54 57 58 56 57 58 58 56 60 62 63 63 66 67 68 69 70 70 70 70 71 72 76 77 79 81 83 85 84
36 37 38 41 46 48 52 55 57 58 63 59 59 60 59 59 62 63 63 65 68 69 69 70 71 71 71 72 73 74 76 78 80 81 84 85 84 82
42 44 45 45 48 50 50 52 62 61 60 60 61 61 61 62 65 66 68 69 70 71 72 72 73 72 74 75 75 77 79 81 82 84 86 86 84 82
48 49 50 49 53 49 53 62 61 60 60 61 62 63 65 67 67 68 69 70 73 74 73 74 75 76 77 78 79 81 83 83 84 87 88 87 83 78
52 52 50 42 51 62 62 61 61 60 62 63 66 68 71 73 72 72 73 75 77 77 76 75 77 77 79 81 82 85 86 86 87 89 89 86 79 72
53 52 53 56 57 59 61 62 62 63 66 69 71 73 74 75 77 79 80 79 80 80 83 80 80 80 83 86 87 88 88 88 89 90 89 81 74 66
55 54 58 59 61 63 64 65 67 70 71 72 74 77 79 82 83 84 83 83 83 85 86 82 83 85 87 88 88 88 90 91 91 88 81 73 67 58
60 61 62 63 65 68 69 71 74 74 74 77 81 83 85 87 87 87 85 87 87 85 86 88 88 89 88 88 87 87 90 92 88 78 71 64 58 50
61 62 64 66 68 70 73 74 74 77 80 84 88 90 89 88 89 89 89 88 88 89 91 90 91 91 88 85 87 89 90 86 77 69 62 56 49 43
62 64 67 69 72 74 76 79 82 86 89 91 90 89 90 90 89 90 91 92 92 92 92 92 90 88 90 89 88 86 79 74 67 60 54 48 42 37
64 68 71 74 75 77 79 83 86 86 87 89 90 91 91 92 94 96 97 97 96 93 90 89 88 89 92 89 82 74 70 66 59 52 46 41 35 32
71 71 72 73 75 77 79 82 85 88 90 91 93 95 97 99 100 100 100 98 96 92 90 92 92 89 85 79 73 67 63 58 52 45 40 34 30 32
71 73 75 77 81 83 86 87 90 93 96 98 99 102 103 104 105 105 104 102 99 94 91 88 86 83 78 72 68 61 56 51 43 38 32 27 28 25
73 77 80 82 85 88 91 94 97 99 102 104 106 108 109 109 108 106 103 98 94 88 85 83 80 78 73 67 62 56 50 42 34 30 24 22 23 25
77 80 83 87 90 93 96 99 102 106 109 111 114 114 113 110 105 99 95 92 88 84 80 78 75 72 69 63 55 46 38 31 27 23 20 21 24 23
82 85 88 91 94 98 103 107 111 114 116 116 114 110 105 102 99 96 93 90 86 81 77 73 69 65 59 53 45 35 28 25 24 20 20 21 20 19
87 90 94 99 104 108 112 115 117 117 115 112 109 107 104 101 96 92 88 83 78 74 68 64 60 56 49 41 33 27 25 26 20 18 20 23 19 16
95 100 104 109 112 114 116 117 117 114 112 110 107 103 99 95 89 83 77 72 66 61 55 51 48 43 35 30 24 28 31 25 22 23 24 21 19 16
104 108 111 112 114 114 113 111 110 107 104 100 96 91 85 77 69 63 57 52 48 43 38 34 33 29 25 23 29 33 30 27 25 25 24 19 16 17
108 109 110 110 108 107 104 100 96 93 86 78 72 66 59 53 48 43 38 33 30 27 24 23 23 20 21 26 31 32 27 26 25 22 23 19 15 18

GFSNE_500_spd_093.txt.gz
Wind_Speed
23 23 27 32 38 47 45 49 50 52 40 44 47 51 53 52 47 57 56 56 57 54 57 60 62 61 60 61 60 63 65 65 65 65 67 69 70 71
28 30 35 42 44 43 45 42 36 36 39 43 46 49 52 52 50 57 62 58 60 51 63 65 67 66 65 65 65 66 67 67 68 69 71 72 73 75
31 34 33 33 33 38 33 36 37 42 45 46 48 51 54 56 55 59 65 67 61 57 66 66 68 68 68 68 69 70 70 69 69 71 73 75 77 79
34 38 35 39 39 40 39 41 44 46 50 53 54 54 56 58 58 61 69 62 63 69 75 73 71 71 71 71 72 72 71 71 73 75 76 79 79 80
39 40 41 42 43 45 46 48 50 52 54 56 57 57 59 60 63 62 63 73 68 73 79 80 76 75 74 74 74 73 75 77 78 80 81 81 80 82
41 42 45 46 47 51 52 52 54 55 57 58 59 59 65 58 57 64 69 77 82 81 79 75 74 75 76 76 77 79 80 83 85 86 83 81 82 83
45 47 50 51 55 55 57 57 58 58 61 64 63 61 59 66 72 72 69 68 81 80 79 80 80 80 82 84 85 84 86 90 88 84 84 84 85 84
51 54 55 56 57 59 60 60 60 62 64 63 61 53 57 75 78 78 75 78 79 83 87 89 88 88 89 89 89 91 94 91 88 86 86 86 86 85
54 56 58 59 61 63 62 61 60 59 56 56 59 66 72 69 72 74 81 86 86 90 92 91 94 93 92 92 93 93 92 93 92 92 91 90 88 86
59 60 61 61 60 61 62 55 70 64 68 70 76 74 73 73 75 79 86 88 89 92 96 95 95 97 96 96 97 97 98 97 98 97 94 90 86 83
51 53 55 58 62 62 65 67 66 62 69 71 73 77 76 76 81 84 88 91 90 93 96 100 100 101 100 101 101 103 104 102 98 96 93 88 84 81
54 58 60 60 61 70 67 64 65 66 68 69 70 73 77 81 84 88 91 93 95 96 100 106 106 108 108 106 106 107 107 104 101 95 90 86 81 78
58 63 65 65 65 64 64 66 68 70 71 73 75 79 83 86 88 91 94 98 101 103 106 112 113 115 117 116 112 111 108 104 96 88 82 77 73 71
66 69 65 64 64 65 67 67 68 70 74 78 80 82 86 90 94 97 101 105 109 112 114 119 121 123 123 122 117 106 101 94 88 80 73 70 68 64
68 64 64 63 64 66 67 67 72 75 78 81 84 89 93 98 102 106 110 114 116 119 122 124 126 125 122 118 111 101 95 88 81 72 66 65 62 60
63 61 63 65 65 67 71 74 78 80 83 87 92 98 103 107 111 115 117 120 122 122 123 122 119 116 112 105 100 91 84 78 72 65 61 59 54 53
60 62 63 64 68 72 76 80 83 87 92 97 102 107 110 113 116 118 119 120 119 117 112 107 103 98 93 88 82 78 72 67 60 55 54 50 45 41
62 63 65 69 73 78 82 86 90 95 101 106 109 112 113 114 114 114 113 110 106 101 96 90 83 79 74 69 67 63 60 56 50 46 43 38 34 30
62 65 71 75 80 84 88 93 98 104 107 109 110 111 110 109 105 100 95 91 86 82 76 71 66 62 57 50 45 46 44 36 31 32 30 25 22 28
68 72 77 81 85 89 95 101 105 107 108 107 106 103 98 92 86 82 79 75 70 64 59 54 49 44 39 34 28 27 31 23 25 25 25 31 27 29
73 79 83 87 91 96 102 104 105 104 102 99 93 87 80 75 72 70 66 61 55 50 43 38 34 30 25 20 14 18 18 16 20 23 30 31 25 23
80 84 88 93 98 100 102 101 99 97 91 84 78 72 67 63 61 59 54 48 44 39 33 28 24 19 14 8 8 12 13 21 27 34 32 29 26 21
84 88 94 97 99 99 96 94 90 83 76 71 66 62 57 55 53 50 45 40 36 31 26 21 16 11 5 2 8 12 20 30 41 32 31 28 22 18

GFSNE_500_spd_096.txt.gz
Wind_Speed
17 17 20 20 23 27 33 38 38 34 31 32 36 34 37 44 48 48 50 52 52 54 56 56 64 64 62 51 57 59 61 63 61 62 64 64 65 67
18 20 24 26 29 28 30 30 34 38 37 33 35 40 46 47 50 53 53 54 57 56 56 58 64 70 68 62 64 63 67 67 65 65 67 69 70 72
23 25 28 30 33 33 35 38 39 41 44 41 42 48 50 51 52 55 58 57 56 57 58 54 64 64 66 65 66 68 69 65 64 67 69 71 73 74
26 29 30 33 36 38 40 41 44 45 49 50 50 52 53 54 56 57 58 58 57 61 63 65 69 69 70 70 70 73 72 70 70 73 74 74 76 77
30 34 36 38 40 42 44 46 49 51 53 56 55 56 57 58 60 62 64 65 65 68 64 69 69 73 73 73 75 78 77 78 83 84 83 83 85 85
35 33 39 42 43 45 47 51 53 55 56 57 59 61 61 62 63 65 67 68 66 63 67 75 76 76 66 74 77 81 84 89 89 89 88 89 90 87
39 41 43 45 48 50 53 56 57 59 60 62 64 63 62 61 60 66 58 71 73 72 73 75 74 76 78 78 84 91 93 94 93 93 91 91 92 94
44 47 48 51 53 55 57 60 62 63 63 62 62 62 57 57 62 67 68 72 76 80 80 74 75 82 84 88 92 95 97 97 96 96 97 99 100 98
47 50 52 55 58 60 60 57 59 60 63 65 66 65 69 75 77 74 73 74 79 81 79 77 81 85 89 93 95 98 99 100 101 103 105 104 104 104
51 54 58 60 60 58 57 58 60 63 65 68 70 74 76 72 72 74 76 81 82 83 87 87 90 91 93 96 98 101 104 106 107 107 109 109 110 107
53 56 58 58 59 59 62 62 66 70 72 74 75 75 74 74 76 78 79 80 82 86 91 93 94 95 96 98 102 107 111 114 115 116 115 113 111 106
54 55 56 58 61 62 63 68 73 77 75 74 73 74 75 76 76 78 81 84 88 90 94 98 103 107 106 107 111 115 120 121 122 120 117 112 104 94
57 56 58 60 61 64 68 73 78 77 72 72 74 76 76 77 81 85 89 92 94 97 102 107 110 115 121 119 116 121 125 126 124 119 110 101 91 83
63 64 67 68 71 78 80 77 73 71 71 74 73 75 78 82 86 90 93 97 102 107 111 117 120 123 126 128 128 123 121 119 112 105 96 85 77 71
70 73 77 78 82 79 75 70 67 69 72 74 76 80 84 88 92 95 101 106 111 115 119 122 125 126 126 124 121 115 108 95 93 89 82 73 63 57
75 79 80 79 77 70 67 67 69 71 73 78 82 87 91 95 99 105 110 114 117 119 121 122 120 117 111 103 98 92 86 79 72 70 65 59 51 48
77 81 78 73 70 67 69 70 72 75 80 85 90 94 97 102 108 112 116 118 119 118 114 107 100 94 89 85 80 75 69 62 57 53 50 44 40 40
69 64 63 67 67 68 70 73 77 81 86 91 95 99 104 109 113 116 116 115 110 101 93 87 82 77 71 63 64 58 49 43 38 33 29 27 29 30
62 66 64 65 68 71 74 79 83 88 92 96 101 106 109 113 112 110 105 96 87 81 77 74 70 64 55 45 39 43 36 28 24 23 24 22 24 20
64 65 67 69 71 74 79 83 87 92 96 101 106 109 108 105 99 91 83 78 73 69 65 62 56 49 43 34 25 27 28 14 11 12 13 18 26 34
66 67 69 72 75 78 82 87 92 97 100 103 103 102 98 89 80 75 71 67 63 59 55 49 43 39 33 26 20 18 14 3 9 14 23 37 35 32
67 70 72 75 79 83 87 91 95 99 100 98 96 90 80 73 69 66 63 59 53 48 45 40 35 29 25 20 15 6 4 12 19 37 37 38 31 20
70 72 75 79 83 87 90 93 94 93 93 89 82 74 69 65 62 59 56 48 41 40 37 31 27 23 18 12 5 8 16 22 38 34 28 31 22 16